TimeEST,TemperatureF,Dew PointF,Humidity,Sea Level PressureIn,VisibilityMPH,Wind Direction,Wind SpeedMPH,Gust SpeedMPH,PrecipitationIn,Events,Conditions,WindDirDegrees,DateUTC
12:45 AM,32.0,23.0,69,29.77,10.0,WNW,9.2,-,N/A,,Overcast,290,2013-03-02 05:45:00
1:45 AM,32.0,23.0,69,29.77,10.0,WNW,6.9,-,N/A,,Overcast,290,2013-03-02 06:45:00
2:45 AM,32.0,23.0,69,29.76,10.0,WNW,9.2,-,N/A,,Overcast,290,2013-03-02 07:45:00
3:45 AM,32.0,23.0,69,29.76,10.0,WNW,9.2,-,N/A,,Overcast,290,2013-03-02 08:45:00
4:45 AM,32.0,23.0,69,29.76,10.0,WNW,5.8,-,N/A,,Overcast,300,2013-03-02 09:45:00
5:45 AM,32.0,23.0,69,29.76,10.0,WNW,6.9,-,N/A,,Overcast,290,2013-03-02 10:45:00
7:50 AM,32.0,23.0,69,29.77,20.0,NW,9.2,-,N/A,,Mostly Cloudy,310,2013-03-02 12:50:00
8:50 AM,33.8,23.0,65,29.77,20.0,NW,11.5,-,N/A,,Mostly Cloudy,310,2013-03-02 13:50:00
9:45 AM,33.8,23.0,65,29.76,20.0,NW,11.5,-,N/A,,Mostly Cloudy,310,2013-03-02 14:45:00
10:45 AM,35.6,24.8,65,29.75,20.0,NW,9.2,-,N/A,,Mostly Cloudy,310,2013-03-02 15:45:00
11:45 AM,35.6,23.0,60,29.74,20.0,WNW,9.2,-,N/A,,Mostly Cloudy,290,2013-03-02 16:45:00
12:45 PM,37.4,24.8,60,29.72,15.0,West,9.2,-,N/A,,Overcast,280,2013-03-02 17:45:00
1:45 PM,37.4,24.8,60,29.71,15.0,North,4.6,-,N/A,,Overcast,10,2013-03-02 18:45:00
2:45 PM,37.4,24.8,60,29.70,15.0,Variable,5.8,-,N/A,,Overcast,0,2013-03-02 19:45:00
3:45 PM,37.4,24.8,60,29.70,15.0,Variable,5.8,-,N/A,,Overcast,0,2013-03-02 20:45:00
4:45 PM,35.6,24.8,65,29.70,15.0,NW,13.8,-,N/A,Snow,Light Snow,310,2013-03-02 21:45:00
5:45 PM,33.8,24.8,70,29.72,10.0,NW,11.5,-,N/A,Snow,Light Snow,310,2013-03-02 22:45:00
8:45 PM,32.0,23.0,69,29.75,10.0,NW,6.9,-,N/A,Snow,Light Snow,320,2013-03-03 01:45:00
9:45 PM,30.2,24.8,80,29.75,6.0,North,6.9,-,N/A,Snow,Light Snow,350,2013-03-03 02:45:00
11:45 PM,28.4,23.0,80,29.74,7.0,NW,6.9,-,N/A,Snow,Light Snow,310,2013-03-03 04:45:00